Regional Weather Roundup
Issued by NWS

Home | Current Version | Previous Version | Text Only | Print | Product List | Glossary On
Versions: 1 2 3 4 5 6 7 8 9 10 11 12 13 14 15 16 17 18 19 20 21 22 23 24 25 26 27 28 29 30 31 32 33 34 35 36 37 38 39 40 41 42 43 44 45 46 47 48 49 50
000
ASUS43 KTOP 182008
RWRKS

WEATHER ROUNDUP FOR KANSAS
NATIONAL WEATHER SERVICE GOODLAND KS
300 PM CDT FRI AUG 18 2017

NOTE:  "FAIR" INDICATES FEW OR NO CLOUDS BELOW 12,000 FEET WITH NO
SIGNIFICANT WEATHER AND/OR OBSTRUCTIONS TO VISIBILITY.

KSZ001>006-013>018-027>032-041>047-182100-
NORTHWEST KANSAS

CITY           SKY/WX    TMP DP  RH WIND       PRES   REMARKS
GOODLAND       SUNNY     86  55  34 N13       30.09S
HAYS           SUNNY     91  64  40 W10       29.96
HILL CITY      SUNNY     87  64  46 N8        30.00S
RUSSELL        SUNNY     90  61  37 NW8       29.95F
$$

KSZ061>065-074>080-084>089-182100-
SOUTHWEST KANSAS

CITY           SKY/WX    TMP DP  RH WIND       PRES   REMARKS
DODGE CITY     SUNNY     91  60  35 W9        30.01F
ELKHART          N/A     86  66  51 W8          N/A
GARDEN CITY    SUNNY     88  61  40 W9        30.02F
GREAT BEND     SUNNY     90  64  42 W15       29.97S
LIBERAL        SUNNY     88  64  44 W13G21    30.05F
PRATT          SUNNY     94  56  28 SW10      29.97S
$$

KSZ066>073-081>083-090>101-182100-
SOUTHEAST KANSAS

CITY           SKY/WX    TMP DP  RH WIND       PRES   REMARKS
CHANUTE        MOSUNNY   89  73  59 SW9       29.95F HX  97
COFFEYVILLE    CLOUDY    85  74  69 S9        29.93S
HUTCHINSON     SUNNY     90  65  43 VRB3      29.95F
MEDICINE LODGE   N/A     95  59  30 W5        29.94F
NEWTON         SUNNY     87  65  47 VRB5      29.97F
PARSONS        MOSUNNY   87  76  69 S7        29.97S HX  97
WICHITA INTL   MOSUNNY   91  64  40 N6        29.95F
WICHITA JABRA  SUNNY     90  66  45 N3        29.96F
WICHITA MCCONL SUNNY     91  60  35 CALM      29.96F
WINFIELD       SUNNY     85  70  60 SE6       29.97F
$$

KSZ007>012-019>026-033>040-048>060-102>105-182100-
NORTHEAST KANSAS

CITY           SKY/WX    TMP DP  RH WIND       PRES   REMARKS
CONCORDIA      SUNNY     87  67  51 NW12G17   29.94F
EMPORIA        SUNNY     88  66  48 CALM      29.95F
LAWRENCE       SUNNY     90  68  48 SW7       29.91F
MANHATTAN      SUNNY     89  67  47 S9        29.93F
MARYSVILLE     SUNNY     91  61  35 NW6       29.92S
OLATHE IND     SUNNY     85  68  56 SW8       29.94F
OLATHE EXE     SUNNY     83  70  64 S7        29.94F
SALINA         SUNNY     94  62  34 W14G23    29.94F
TOPEKA BILLARD SUNNY     90  64  42 W9        29.91F
TOPEKA FORBES  SUNNY     90  65  43 SW7       29.93F
$$



USA.gov is the U.S. government's official web portal to all federal, state and local government web resources and services.